Year,Month,Day,Hour,Minute,Value (Times are PST for temperature in C)
2016,06,04,00,00,16.30
2016,06,04,00,01,16.30
2016,06,04,00,02,16.30
2016,06,04,00,03,16.30
2016,06,04,00,04,16.30
2016,06,04,00,05,16.20
2016,06,04,00,06,16.20
2016,06,04,00,07,16.20
2016,06,04,00,08,16.10
2016,06,04,00,09,16.10
2016,06,04,00,10,16.10
2016,06,04,00,11,16.10
2016,06,04,00,12,16.10
2016,06,04,00,13,16.10
2016,06,04,00,14,16.10
2016,06,04,00,15,16.10
2016,06,04,00,16,16.00
2016,06,04,00,17,15.90
2016,06,04,00,18,16.00
2016,06,04,00,19,15.90
2016,06,04,00,20,15.90
2016,06,04,00,21,15.90
2016,06,04,00,22,15.90
2016,06,04,00,23,15.90
2016,06,04,00,24,15.90
2016,06,04,00,25,15.90
2016,06,04,00,26,15.80
2016,06,04,00,27,15.80
2016,06,04,00,28,15.80
2016,06,04,00,29,15.80
2016,06,04,00,30,15.80
2016,06,04,00,31,15.70
2016,06,04,00,32,15.70
2016,06,04,00,33,15.70
2016,06,04,00,34,15.70
2016,06,04,00,35,15.60
2016,06,04,00,36,15.60
2016,06,04,00,37,15.60
2016,06,04,00,38,15.60
2016,06,04,00,39,15.50
2016,06,04,00,40,15.50
2016,06,04,00,41,15.50
2016,06,04,00,42,15.50
2016,06,04,00,43,15.50
2016,06,04,00,44,15.40
2016,06,04,00,45,15.40
2016,06,04,00,46,15.40
2016,06,04,00,47,15.40
2016,06,04,00,48,15.40
2016,06,04,00,49,15.30
2016,06,04,00,50,15.30
2016,06,04,00,51,15.30
2016,06,04,00,52,15.30
2016,06,04,00,53,15.30
2016,06,04,00,54,15.30
2016,06,04,00,55,15.30
2016,06,04,00,56,15.30
2016,06,04,00,57,15.30
2016,06,04,00,58,15.20
2016,06,04,00,59,15.20
2016,06,04,01,00,15.20
2016,06,04,01,01,15.20
2016,06,04,01,02,15.20
2016,06,04,01,03,15.20
2016,06,04,01,04,15.10
2016,06,04,01,05,15.10
2016,06,04,01,06,15.10
2016,06,04,01,07,15.10
2016,06,04,01,08,15.10
2016,06,04,01,09,15.10
2016,06,04,01,10,15.10
2016,06,04,01,11,15.10
2016,06,04,01,12,15.10
2016,06,04,01,13,15.10
2016,06,04,01,14,15.00
2016,06,04,01,15,15.00
2016,06,04,01,16,15.00
2016,06,04,01,17,15.00
2016,06,04,01,18,15.00
2016,06,04,01,19,14.90
2016,06,04,01,20,14.90
2016,06,04,01,21,14.90
2016,06,04,01,22,14.90
2016,06,04,01,23,14.80
2016,06,04,01,24,14.80
2016,06,04,01,25,14.80
2016,06,04,01,26,14.80
2016,06,04,01,27,14.80
2016,06,04,01,28,14.80
2016,06,04,01,29,14.70
2016,06,04,01,30,14.70
2016,06,04,01,31,14.70
2016,06,04,01,32,14.70
2016,06,04,01,33,14.60
2016,06,04,01,34,14.60
2016,06,04,01,35,14.60
2016,06,04,01,36,14.60
2016,06,04,01,37,14.60
2016,06,04,01,38,14.60
2016,06,04,01,39,14.60
2016,06,04,01,40,14.60
2016,06,04,01,41,14.60
2016,06,04,01,42,14.50
2016,06,04,01,43,14.50
2016,06,04,01,44,14.50
2016,06,04,01,45,14.60
2016,06,04,01,46,14.60
2016,06,04,01,47,14.60
2016,06,04,01,48,14.60
2016,06,04,01,49,14.60
2016,06,04,01,50,14.60
2016,06,04,01,51,14.60
2016,06,04,01,52,14.60
2016,06,04,01,53,14.60
2016,06,04,01,54,14.60
2016,06,04,01,55,14.60
2016,06,04,01,56,14.70
2016,06,04,01,57,14.70
2016,06,04,01,58,14.70
2016,06,04,01,59,14.70
2016,06,04,02,00,14.70
2016,06,04,02,01,14.70
2016,06,04,02,02,14.70
2016,06,04,02,03,14.70
2016,06,04,02,04,14.70
2016,06,04,02,05,14.70
2016,06,04,02,06,14.70
2016,06,04,02,07,14.70
2016,06,04,02,08,14.70
2016,06,04,02,09,14.70
2016,06,04,02,10,14.70
2016,06,04,02,11,14.70
2016,06,04,02,12,14.70
2016,06,04,02,13,14.60
2016,06,04,02,14,14.60
2016,06,04,02,15,14.60
2016,06,04,02,16,14.60
2016,06,04,02,17,14.70
2016,06,04,02,18,14.70
2016,06,04,02,19,14.70
2016,06,04,02,20,14.70
2016,06,04,02,21,14.70
2016,06,04,02,22,14.70
2016,06,04,02,23,14.70
2016,06,04,02,24,14.60
2016,06,04,02,25,14.60
2016,06,04,02,26,14.60
2016,06,04,02,27,14.60
2016,06,04,02,28,14.60
2016,06,04,02,29,14.60
2016,06,04,02,30,14.60
2016,06,04,02,31,14.50
2016,06,04,02,32,14.50
2016,06,04,02,33,14.50
2016,06,04,02,34,14.50
2016,06,04,02,35,14.50
2016,06,04,02,36,14.50
2016,06,04,02,37,14.40
2016,06,04,02,38,14.40
2016,06,04,02,39,14.40
2016,06,04,02,40,14.40
2016,06,04,02,41,14.40
2016,06,04,02,42,14.40
2016,06,04,02,43,14.40
2016,06,04,02,44,14.40
2016,06,04,02,45,14.40
2016,06,04,02,46,14.30
2016,06,04,02,47,14.30
2016,06,04,02,48,14.30
2016,06,04,02,49,14.30
2016,06,04,02,50,14.30
2016,06,04,02,51,14.20
2016,06,04,02,52,14.20
2016,06,04,02,53,14.20
2016,06,04,02,54,14.20
2016,06,04,02,55,14.20
2016,06,04,02,56,14.20
2016,06,04,02,57,14.20
2016,06,04,02,58,14.20
2016,06,04,02,59,14.20
2016,06,04,03,00,14.20
2016,06,04,03,01,14.20
2016,06,04,03,02,14.20
2016,06,04,03,03,14.20
2016,06,04,03,04,14.20
2016,06,04,03,05,14.20
2016,06,04,03,06,14.20
2016,06,04,03,07,14.20
2016,06,04,03,08,14.20
2016,06,04,03,09,14.20
2016,06,04,03,10,14.20
2016,06,04,03,11,14.20
2016,06,04,03,12,14.20
2016,06,04,03,13,14.20
2016,06,04,03,14,14.10
2016,06,04,03,15,14.10
2016,06,04,03,16,14.00
2016,06,04,03,17,14.00
2016,06,04,03,18,14.00
2016,06,04,03,19,14.00
2016,06,04,03,20,14.00
2016,06,04,03,21,14.00
2016,06,04,03,22,14.00
2016,06,04,03,23,14.00
2016,06,04,03,24,13.90
2016,06,04,03,25,13.90
2016,06,04,03,26,13.90
2016,06,04,03,27,13.90
2016,06,04,03,28,14.00
2016,06,04,03,29,13.90
2016,06,04,03,30,13.90
2016,06,04,03,31,13.90
2016,06,04,03,32,13.90
2016,06,04,03,33,13.90
2016,06,04,03,34,13.90
2016,06,04,03,35,13.80
2016,06,04,03,36,13.80
2016,06,04,03,37,13.80
2016,06,04,03,38,13.80
2016,06,04,03,39,13.70
2016,06,04,03,40,13.70
2016,06,04,03,41,13.70
2016,06,04,03,42,13.70
2016,06,04,03,43,13.70
2016,06,04,03,44,13.70
2016,06,04,03,45,13.70
2016,06,04,03,46,13.60
2016,06,04,03,47,13.60
2016,06,04,03,48,13.60
2016,06,04,03,49,13.60
2016,06,04,03,50,13.50
2016,06,04,03,51,13.50
2016,06,04,03,52,13.50
2016,06,04,03,53,13.50
2016,06,04,03,54,13.50
2016,06,04,03,55,13.40
2016,06,04,03,56,13.40
2016,06,04,03,57,13.40
2016,06,04,03,58,13.40
2016,06,04,03,59,13.30
2016,06,04,04,00,13.30
2016,06,04,04,01,13.30
2016,06,04,04,02,13.30
2016,06,04,04,03,13.30
2016,06,04,04,04,13.30
2016,06,04,04,05,13.30
2016,06,04,04,06,13.30
2016,06,04,04,07,13.30
2016,06,04,04,08,13.30
2016,06,04,04,09,13.30
2016,06,04,04,10,13.30
2016,06,04,04,11,13.30
2016,06,04,04,12,13.30
2016,06,04,04,13,13.30
2016,06,04,04,14,13.20
2016,06,04,04,15,13.20
2016,06,04,04,16,13.20
2016,06,04,04,17,13.20
2016,06,04,04,18,13.20
2016,06,04,04,19,13.20
2016,06,04,04,20,13.20
2016,06,04,04,21,13.20
2016,06,04,04,22,13.20
2016,06,04,04,23,13.20
2016,06,04,04,24,13.20
2016,06,04,04,25,13.20
2016,06,04,04,26,13.20
2016,06,04,04,27,13.20
2016,06,04,04,28,13.20
2016,06,04,04,29,13.10
2016,06,04,04,30,13.10
2016,06,04,04,31,13.10
2016,06,04,04,32,13.10
2016,06,04,04,33,13.10
2016,06,04,04,34,13.10
2016,06,04,04,35,13.10
2016,06,04,04,36,13.10
2016,06,04,04,37,13.10
2016,06,04,04,38,13.10
2016,06,04,04,39,13.10
2016,06,04,04,40,13.00
2016,06,04,04,41,13.00
2016,06,04,04,42,13.00
2016,06,04,04,43,13.00
2016,06,04,04,44,13.00
2016,06,04,04,45,13.00
2016,06,04,04,46,13.00
2016,06,04,04,47,13.00
2016,06,04,04,48,12.90
2016,06,04,04,49,12.90
2016,06,04,04,50,12.90
2016,06,04,04,51,12.90
2016,06,04,04,52,12.90
2016,06,04,04,53,12.90
2016,06,04,04,54,12.80
2016,06,04,04,55,12.80
2016,06,04,04,56,12.90
2016,06,04,04,57,12.90
2016,06,04,04,58,12.90
2016,06,04,04,59,12.90
2016,06,04,05,00,12.90
2016,06,04,05,01,12.90
2016,06,04,05,02,12.90
2016,06,04,05,03,12.90
2016,06,04,05,04,12.80
2016,06,04,05,05,12.80
2016,06,04,05,06,12.80
2016,06,04,05,07,12.80
2016,06,04,05,08,12.80
2016,06,04,05,09,12.80
2016,06,04,05,10,12.80
2016,06,04,05,11,12.80
2016,06,04,05,12,12.80
2016,06,04,05,13,12.70
2016,06,04,05,14,12.70
2016,06,04,05,15,12.70
2016,06,04,05,16,12.60
2016,06,04,05,17,12.60
2016,06,04,05,18,12.60
2016,06,04,05,19,12.60
2016,06,04,05,20,12.60
2016,06,04,05,21,12.60
2016,06,04,05,22,12.50
2016,06,04,05,23,12.50
2016,06,04,05,24,12.50
2016,06,04,05,25,12.50
2016,06,04,05,26,12.50
2016,06,04,05,27,12.50
2016,06,04,05,28,12.50
2016,06,04,05,29,12.40
2016,06,04,05,30,12.40
2016,06,04,05,31,12.40
2016,06,04,05,32,12.40
2016,06,04,05,33,12.40
2016,06,04,05,34,12.40
2016,06,04,05,35,12.40
2016,06,04,05,36,12.40
2016,06,04,05,37,12.40
2016,06,04,05,38,12.40
2016,06,04,05,39,12.40
2016,06,04,05,40,12.30
2016,06,04,05,41,12.30
2016,06,04,05,42,12.30
2016,06,04,05,43,12.40
2016,06,04,05,44,12.40
2016,06,04,05,45,12.40
2016,06,04,05,46,12.40
2016,06,04,05,47,12.40
2016,06,04,05,48,12.40
2016,06,04,05,49,12.40
2016,06,04,05,50,12.40
2016,06,04,05,51,12.40
2016,06,04,05,52,12.40
2016,06,04,05,53,12.40
2016,06,04,05,54,12.40
2016,06,04,05,55,12.40
2016,06,04,05,56,12.40
2016,06,04,05,57,12.40
2016,06,04,05,58,12.40
2016,06,04,05,59,12.40
2016,06,04,06,00,12.40
2016,06,04,06,01,12.50
2016,06,04,06,02,12.50
2016,06,04,06,03,12.50
2016,06,04,06,04,12.60
2016,06,04,06,05,12.70
2016,06,04,06,06,12.70
2016,06,04,06,07,12.80
2016,06,04,06,08,12.80
2016,06,04,06,09,12.90
2016,06,04,06,10,12.90
2016,06,04,06,11,13.00
2016,06,04,06,12,13.00
2016,06,04,06,13,13.10
2016,06,04,06,14,13.10
2016,06,04,06,15,13.10
2016,06,04,06,16,13.10
2016,06,04,06,17,13.20
2016,06,04,06,18,13.20
2016,06,04,06,19,13.30
2016,06,04,06,20,13.30
2016,06,04,06,21,13.40
2016,06,04,06,22,13.50
2016,06,04,06,23,13.50
2016,06,04,06,24,13.60
2016,06,04,06,25,13.70
2016,06,04,06,26,13.70
2016,06,04,06,27,13.80
2016,06,04,06,28,13.90
2016,06,04,06,29,13.90
2016,06,04,06,30,14.00
2016,06,04,06,31,14.10
2016,06,04,06,32,14.20
2016,06,04,06,33,14.30
2016,06,04,06,34,14.40
2016,06,04,06,35,14.50
2016,06,04,06,36,14.60
2016,06,04,06,37,14.70
2016,06,04,06,38,14.80
2016,06,04,06,39,14.90
2016,06,04,06,40,15.00
2016,06,04,06,41,15.00
2016,06,04,06,42,15.10
2016,06,04,06,43,15.10
2016,06,04,06,44,15.20
2016,06,04,06,45,15.20
2016,06,04,06,46,15.30
2016,06,04,06,47,15.30
2016,06,04,06,48,15.30
2016,06,04,06,49,15.30
2016,06,04,06,50,15.30
2016,06,04,06,51,15.30
2016,06,04,06,52,15.30
2016,06,04,06,53,15.30
2016,06,04,06,54,15.30
2016,06,04,06,55,15.40
2016,06,04,06,56,15.50
2016,06,04,06,57,15.60
2016,06,04,06,58,15.60
2016,06,04,06,59,15.70
2016,06,04,07,00,15.70
2016,06,04,07,01,15.70
2016,06,04,07,02,15.70
2016,06,04,07,03,15.70
2016,06,04,07,04,15.80
2016,06,04,07,05,15.80
2016,06,04,07,06,15.90
2016,06,04,07,07,16.00
2016,06,04,07,08,16.10
2016,06,04,07,09,16.20
2016,06,04,07,10,16.40
2016,06,04,07,11,16.50
2016,06,04,07,12,16.70
2016,06,04,07,13,16.70
2016,06,04,07,14,16.80
2016,06,04,07,15,16.90
2016,06,04,07,16,16.90
2016,06,04,07,17,17.00
2016,06,04,07,18,17.00
2016,06,04,07,19,17.00
2016,06,04,07,20,17.00
2016,06,04,07,21,17.00
2016,06,04,07,22,17.10
2016,06,04,07,23,17.10
2016,06,04,07,24,17.10
2016,06,04,07,25,17.20
2016,06,04,07,26,17.20
2016,06,04,07,27,17.30
2016,06,04,07,28,17.40
2016,06,04,07,29,17.40
2016,06,04,07,30,17.50
2016,06,04,07,31,17.60
2016,06,04,07,32,17.70
2016,06,04,07,33,17.80
2016,06,04,07,34,17.90
2016,06,04,07,35,18.00
2016,06,04,07,36,18.10
2016,06,04,07,37,18.20
2016,06,04,07,38,18.20
2016,06,04,07,39,18.40
2016,06,04,07,40,18.40
2016,06,04,07,41,18.50
2016,06,04,07,42,18.60
2016,06,04,07,43,18.60
2016,06,04,07,44,18.70
2016,06,04,07,45,18.80
2016,06,04,07,46,18.90
2016,06,04,07,47,18.90
2016,06,04,07,48,19.00
2016,06,04,07,49,19.10
2016,06,04,07,50,19.20
2016,06,04,07,51,19.30
2016,06,04,07,52,19.30
2016,06,04,07,53,19.40
2016,06,04,07,54,19.40
2016,06,04,07,55,19.50
2016,06,04,07,56,19.60
2016,06,04,07,57,19.70
2016,06,04,07,58,19.80
2016,06,04,07,59,19.80
2016,06,04,08,00,19.80
2016,06,04,08,01,19.90
2016,06,04,08,02,20.00
2016,06,04,08,03,20.10
2016,06,04,08,04,20.10
2016,06,04,08,05,20.20
2016,06,04,08,06,20.20
2016,06,04,08,07,20.20
2016,06,04,08,08,20.20
2016,06,04,08,09,20.30
2016,06,04,08,10,20.30
2016,06,04,08,11,20.40
2016,06,04,08,12,20.50
2016,06,04,08,13,20.50
2016,06,04,08,14,20.60
2016,06,04,08,15,20.60
2016,06,04,08,16,20.60
2016,06,04,08,17,20.60
2016,06,04,08,18,20.60
2016,06,04,08,19,20.70
2016,06,04,08,20,20.70
2016,06,04,08,21,20.70
2016,06,04,08,22,20.60
2016,06,04,08,23,20.60
2016,06,04,08,24,20.60
2016,06,04,08,25,20.60
2016,06,04,08,26,20.60
2016,06,04,08,27,20.60
2016,06,04,08,28,20.60
2016,06,04,08,29,20.60
2016,06,04,08,30,20.70
2016,06,04,08,31,20.70
2016,06,04,08,32,20.70
2016,06,04,08,33,20.80
2016,06,04,08,34,20.80
2016,06,04,08,35,20.70
2016,06,04,08,36,20.70
2016,06,04,08,37,20.70
2016,06,04,08,38,20.80
2016,06,04,08,39,20.80
2016,06,04,08,40,20.80
2016,06,04,08,41,20.80
2016,06,04,08,42,20.80
2016,06,04,08,43,20.90
2016,06,04,08,44,20.90
2016,06,04,08,45,20.80
2016,06,04,08,46,20.80
2016,06,04,08,47,20.80
2016,06,04,08,48,20.90
2016,06,04,08,49,21.00
2016,06,04,08,50,21.10
2016,06,04,08,51,21.10
2016,06,04,08,52,21.10
2016,06,04,08,53,21.10
2016,06,04,08,54,21.10
2016,06,04,08,55,21.10
2016,06,04,08,56,21.10
2016,06,04,08,57,21.10
2016,06,04,08,58,21.10
2016,06,04,08,59,21.10
2016,06,04,09,00,21.10
2016,06,04,09,01,21.20
2016,06,04,09,02,21.30
2016,06,04,09,03,21.30
2016,06,04,09,04,21.30
2016,06,04,09,05,21.40
2016,06,04,09,06,21.50
2016,06,04,09,07,21.60
2016,06,04,09,08,21.60
2016,06,04,09,09,21.60
2016,06,04,09,10,21.60
2016,06,04,09,11,21.60
2016,06,04,09,12,21.60
2016,06,04,09,13,21.60
2016,06,04,09,14,21.60
2016,06,04,09,15,21.60
2016,06,04,09,16,21.60
2016,06,04,09,17,21.60
2016,06,04,09,18,21.60
2016,06,04,09,19,21.60
2016,06,04,09,20,21.60
2016,06,04,09,21,21.60
2016,06,04,09,22,21.60
2016,06,04,09,23,21.60
2016,06,04,09,24,21.60
2016,06,04,09,25,21.60
2016,06,04,09,26,21.70
2016,06,04,09,27,21.70
2016,06,04,09,28,21.70
2016,06,04,09,29,21.70
2016,06,04,09,30,21.70
2016,06,04,09,31,21.80
2016,06,04,09,32,21.80
2016,06,04,09,33,21.80
2016,06,04,09,34,21.80
2016,06,04,09,35,21.90
2016,06,04,09,36,21.90
2016,06,04,09,37,21.80
2016,06,04,09,38,21.80
2016,06,04,09,39,21.80
2016,06,04,09,40,21.70
2016,06,04,09,41,21.70
2016,06,04,09,42,21.60
2016,06,04,09,43,21.60
2016,06,04,09,44,21.60
2016,06,04,09,45,21.50
2016,06,04,09,46,21.40
2016,06,04,09,47,21.30
2016,06,04,09,48,21.30
2016,06,04,09,49,21.30
2016,06,04,09,50,21.30
2016,06,04,09,51,21.40
2016,06,04,09,52,21.50
2016,06,04,09,53,21.60
2016,06,04,09,54,21.60
2016,06,04,09,55,21.70
2016,06,04,09,56,21.80
2016,06,04,09,57,21.90
2016,06,04,09,58,21.80
2016,06,04,09,59,21.80
2016,06,04,10,00,21.80
2016,06,04,10,01,21.70
2016,06,04,10,02,21.70
2016,06,04,10,03,21.70
2016,06,04,10,04,21.80
2016,06,04,10,05,21.90
2016,06,04,10,06,22.00
2016,06,04,10,07,22.10
2016,06,04,10,08,22.10
2016,06,04,10,09,22.10
2016,06,04,10,10,22.10
2016,06,04,10,11,22.10
2016,06,04,10,12,22.10
2016,06,04,10,13,22.10
2016,06,04,10,14,22.10
2016,06,04,10,15,22.20
2016,06,04,10,16,22.20
2016,06,04,10,17,22.30
2016,06,04,10,18,22.40
2016,06,04,10,19,22.50
2016,06,04,10,20,22.50
2016,06,04,10,21,22.40
2016,06,04,10,22,22.40
2016,06,04,10,23,22.30
2016,06,04,10,24,22.40
2016,06,04,10,25,22.40
2016,06,04,10,26,22.30
2016,06,04,10,27,22.30
2016,06,04,10,28,22.30
2016,06,04,10,29,22.30
2016,06,04,10,30,22.40
2016,06,04,10,31,22.50
2016,06,04,10,32,22.50
2016,06,04,10,33,22.50
2016,06,04,10,34,22.40
2016,06,04,10,35,22.50
2016,06,04,10,36,22.50
2016,06,04,10,37,22.50
2016,06,04,10,38,22.50
2016,06,04,10,39,22.40
2016,06,04,10,40,22.50
2016,06,04,10,41,22.50
2016,06,04,10,42,22.50
2016,06,04,10,43,22.50
2016,06,04,10,44,22.50
2016,06,04,10,45,22.60
2016,06,04,10,46,22.70
2016,06,04,10,47,22.80
2016,06,04,10,48,22.80
2016,06,04,10,49,22.80
2016,06,04,10,50,22.80
2016,06,04,10,51,22.90
2016,06,04,10,52,23.00
2016,06,04,10,53,23.10
2016,06,04,10,54,23.00
2016,06,04,10,55,22.90
2016,06,04,10,56,22.90
2016,06,04,10,57,23.00
2016,06,04,10,58,23.00
2016,06,04,10,59,22.90
2016,06,04,11,00,22.90
2016,06,04,11,01,22.90
2016,06,04,11,02,22.90
2016,06,04,11,03,23.10
2016,06,04,11,04,23.20
2016,06,04,11,05,23.10
2016,06,04,11,06,23.10
2016,06,04,11,07,23.00
2016,06,04,11,08,22.90
2016,06,04,11,09,23.00
2016,06,04,11,10,22.90
2016,06,04,11,11,23.00
2016,06,04,11,12,23.10
2016,06,04,11,13,23.10
2016,06,04,11,14,23.00
2016,06,04,11,15,23.00
2016,06,04,11,16,23.10
2016,06,04,11,17,23.20
2016,06,04,11,18,23.30
2016,06,04,11,19,23.30
2016,06,04,11,20,23.30
2016,06,04,11,21,23.40
2016,06,04,11,22,23.30
2016,06,04,11,23,23.30
2016,06,04,11,24,23.30
2016,06,04,11,25,23.30
2016,06,04,11,26,23.30
2016,06,04,11,27,23.30
2016,06,04,11,28,23.30
2016,06,04,11,29,23.40
2016,06,04,11,30,23.50
2016,06,04,11,31,23.60
2016,06,04,11,32,23.40
2016,06,04,11,33,23.40
2016,06,04,11,34,23.40
2016,06,04,11,35,23.50
2016,06,04,11,36,23.60
2016,06,04,11,37,23.70
2016,06,04,11,38,23.70
2016,06,04,11,39,23.90
2016,06,04,11,40,24.00
2016,06,04,11,41,24.10
2016,06,04,11,42,24.10
2016,06,04,11,43,24.10
2016,06,04,11,44,24.10
2016,06,04,11,45,24.10
2016,06,04,11,46,24.10
2016,06,04,11,47,24.10
2016,06,04,11,48,24.10
2016,06,04,11,49,24.20
2016,06,04,11,50,24.10
2016,06,04,11,51,24.10
2016,06,04,11,52,24.10
2016,06,04,11,53,24.10
2016,06,04,11,54,24.00
2016,06,04,11,55,24.10
2016,06,04,11,56,24.10
2016,06,04,11,57,24.10
2016,06,04,11,58,24.10
2016,06,04,11,59,24.10
2016,06,04,12,00,24.10
2016,06,04,12,01,24.10
2016,06,04,12,02,24.10
2016,06,04,12,03,24.20
2016,06,04,12,04,24.40
2016,06,04,12,05,24.40
2016,06,04,12,06,24.50
2016,06,04,12,07,24.50
2016,06,04,12,08,24.50
2016,06,04,12,09,24.50
2016,06,04,12,10,24.60
2016,06,04,12,11,24.60
2016,06,04,12,12,24.60
2016,06,04,12,13,24.70
2016,06,04,12,14,24.70
2016,06,04,12,15,24.60
2016,06,04,12,16,24.60
2016,06,04,12,17,24.70
2016,06,04,12,18,24.60
2016,06,04,12,19,24.60
2016,06,04,12,20,24.50
2016,06,04,12,21,24.50
2016,06,04,12,22,24.50
2016,06,04,12,23,24.50
2016,06,04,12,24,24.60
2016,06,04,12,25,24.60
2016,06,04,12,26,24.70
2016,06,04,12,27,24.60
2016,06,04,12,28,24.50
2016,06,04,12,29,24.40
2016,06,04,12,30,24.30
2016,06,04,12,31,24.30
2016,06,04,12,32,24.30
2016,06,04,12,33,24.10
2016,06,04,12,34,24.10
2016,06,04,12,35,24.20
2016,06,04,12,36,24.30
2016,06,04,12,37,24.50
2016,06,04,12,38,24.70
2016,06,04,12,39,24.90
2016,06,04,12,40,24.90
2016,06,04,12,41,24.90
2016,06,04,12,42,24.90
2016,06,04,12,43,24.80
2016,06,04,12,44,24.80
2016,06,04,12,45,24.80
2016,06,04,12,46,24.80
2016,06,04,12,47,24.80
2016,06,04,12,48,24.90
2016,06,04,12,49,25.10
2016,06,04,12,50,25.10
2016,06,04,12,51,25.10
2016,06,04,12,52,25.20
2016,06,04,12,53,25.20
2016,06,04,12,54,25.10
2016,06,04,12,55,25.10
2016,06,04,12,56,25.10
2016,06,04,12,57,25.10
2016,06,04,12,58,25.10
2016,06,04,12,59,25.00
2016,06,04,13,00,24.90
2016,06,04,13,01,24.70
2016,06,04,13,02,24.60
2016,06,04,13,03,24.60
2016,06,04,13,04,24.60
2016,06,04,13,05,24.60
2016,06,04,13,06,24.60
2016,06,04,13,07,24.70
2016,06,04,13,08,24.80
2016,06,04,13,09,24.90
2016,06,04,13,10,24.90
2016,06,04,13,11,24.80
2016,06,04,13,12,24.70
2016,06,04,13,13,24.70
2016,06,04,13,14,24.80
2016,06,04,13,15,24.80
2016,06,04,13,16,24.80
2016,06,04,13,17,24.70
2016,06,04,13,18,24.60
2016,06,04,13,19,24.60
2016,06,04,13,20,24.70
2016,06,04,13,21,24.80
2016,06,04,13,22,25.00
2016,06,04,13,23,25.10
2016,06,04,13,24,25.20
2016,06,04,13,25,25.20
2016,06,04,13,26,25.20
2016,06,04,13,27,25.30
2016,06,04,13,28,25.30
2016,06,04,13,29,25.30
2016,06,04,13,30,25.20
2016,06,04,13,31,25.10
2016,06,04,13,32,25.20
2016,06,04,13,33,25.20
2016,06,04,13,34,25.20
2016,06,04,13,35,25.10
2016,06,04,13,36,25.20
2016,06,04,13,37,25.20
2016,06,04,13,38,25.10
2016,06,04,13,39,25.00
2016,06,04,13,40,24.90
2016,06,04,13,41,25.00
2016,06,04,13,42,25.00
2016,06,04,13,43,25.00
2016,06,04,13,44,25.00
2016,06,04,13,45,25.00
2016,06,04,13,46,24.90
2016,06,04,13,47,24.80
2016,06,04,13,48,24.70
2016,06,04,13,49,24.80
2016,06,04,13,50,24.90
2016,06,04,13,51,24.90
2016,06,04,13,52,25.00
2016,06,04,13,53,25.10
2016,06,04,13,54,25.10
2016,06,04,13,55,25.10
2016,06,04,13,56,25.10
2016,06,04,13,57,25.20
2016,06,04,13,58,25.40
2016,06,04,13,59,25.60
2016,06,04,14,00,25.70
2016,06,04,14,01,25.60
2016,06,04,14,02,25.50
2016,06,04,14,03,25.40
2016,06,04,14,04,25.40
2016,06,04,14,05,25.40
2016,06,04,14,06,25.40
2016,06,04,14,07,25.50
2016,06,04,14,08,25.50
2016,06,04,14,09,25.50
2016,06,04,14,10,25.50
2016,06,04,14,11,25.50
2016,06,04,14,12,25.30
2016,06,04,14,13,25.10
2016,06,04,14,14,25.20
2016,06,04,14,15,25.20
2016,06,04,14,16,25.40
2016,06,04,14,17,25.50
2016,06,04,14,18,25.60
2016,06,04,14,19,25.80
2016,06,04,14,20,26.10
2016,06,04,14,21,26.20
2016,06,04,14,22,26.20
2016,06,04,14,23,26.30
2016,06,04,14,24,26.30
2016,06,04,14,25,26.20
2016,06,04,14,26,26.10
2016,06,04,14,27,26.00
2016,06,04,14,28,25.90
2016,06,04,14,29,25.90
2016,06,04,14,30,25.80
2016,06,04,14,31,25.70
2016,06,04,14,32,25.70
2016,06,04,14,33,25.80
2016,06,04,14,34,25.90
2016,06,04,14,35,25.90
2016,06,04,14,36,25.90
2016,06,04,14,37,25.90
2016,06,04,14,38,25.90
2016,06,04,14,39,26.00
2016,06,04,14,40,26.00
2016,06,04,14,41,26.10
2016,06,04,14,42,26.00
2016,06,04,14,43,26.00
2016,06,04,14,44,26.00
2016,06,04,14,45,26.00
2016,06,04,14,46,26.00
2016,06,04,14,47,26.00
2016,06,04,14,48,26.00
2016,06,04,14,49,26.00
2016,06,04,14,50,26.10
2016,06,04,14,51,26.10
2016,06,04,14,52,26.10
2016,06,04,14,53,26.00
2016,06,04,14,54,26.00
2016,06,04,14,55,26.00
2016,06,04,14,56,26.10
2016,06,04,14,57,26.10
2016,06,04,14,58,26.20
2016,06,04,14,59,26.20
2016,06,04,15,00,26.20
2016,06,04,15,01,26.10
2016,06,04,15,02,25.90
2016,06,04,15,03,25.90
2016,06,04,15,04,25.90
2016,06,04,15,05,26.00
2016,06,04,15,06,26.10
2016,06,04,15,07,26.10
2016,06,04,15,08,26.00
2016,06,04,15,09,26.00
2016,06,04,15,10,26.00
2016,06,04,15,11,26.00
2016,06,04,15,12,26.10
2016,06,04,15,13,26.20
2016,06,04,15,14,26.20
2016,06,04,15,15,26.20
2016,06,04,15,16,26.30
2016,06,04,15,17,26.40
2016,06,04,15,18,26.50
2016,06,04,15,19,26.60
2016,06,04,15,20,26.60
2016,06,04,15,21,26.70
2016,06,04,15,22,26.80
2016,06,04,15,23,27.00
2016,06,04,15,24,27.10
2016,06,04,15,25,27.00
2016,06,04,15,26,26.90
2016,06,04,15,27,26.90
2016,06,04,15,28,26.80
2016,06,04,15,29,26.70
2016,06,04,15,30,26.60
2016,06,04,15,31,26.50
2016,06,04,15,32,26.40
2016,06,04,15,33,26.40
2016,06,04,15,34,26.40
2016,06,04,15,35,26.40
2016,06,04,15,36,26.40
2016,06,04,15,37,26.40
2016,06,04,15,38,26.50
2016,06,04,15,39,26.60
2016,06,04,15,40,26.60
2016,06,04,15,41,26.60
2016,06,04,15,42,26.70
2016,06,04,15,43,26.80
2016,06,04,15,44,26.80
2016,06,04,15,45,26.90
2016,06,04,15,46,26.90
2016,06,04,15,47,26.80
2016,06,04,15,48,26.70
2016,06,04,15,49,26.70
2016,06,04,15,50,26.60
2016,06,04,15,51,26.70
2016,06,04,15,52,26.80
2016,06,04,15,53,26.90
2016,06,04,15,54,27.10
2016,06,04,15,55,27.20
2016,06,04,15,56,27.20
2016,06,04,15,57,27.10
2016,06,04,15,58,27.10
2016,06,04,15,59,27.10
2016,06,04,16,00,27.20
2016,06,04,16,01,27.20
2016,06,04,16,02,27.30
2016,06,04,16,03,27.30
2016,06,04,16,04,27.30
2016,06,04,16,05,27.30
2016,06,04,16,06,27.30
2016,06,04,16,07,27.30
2016,06,04,16,08,27.20
2016,06,04,16,09,27.20
2016,06,04,16,10,27.20
2016,06,04,16,11,27.20
2016,06,04,16,12,27.10
2016,06,04,16,13,27.00
2016,06,04,16,14,26.90
2016,06,04,16,15,27.00
2016,06,04,16,16,27.00
2016,06,04,16,17,26.90
2016,06,04,16,18,27.00
2016,06,04,16,19,27.10
2016,06,04,16,20,27.20
2016,06,04,16,21,27.30
2016,06,04,16,22,27.30
2016,06,04,16,23,27.40
2016,06,04,16,24,27.50
2016,06,04,16,25,27.60
2016,06,04,16,26,27.60
2016,06,04,16,27,27.60
2016,06,04,16,28,27.70
2016,06,04,16,29,27.70
2016,06,04,16,30,27.80
2016,06,04,16,31,27.80
2016,06,04,16,32,27.80
2016,06,04,16,33,27.80
2016,06,04,16,34,27.80
2016,06,04,16,35,27.80
2016,06,04,16,36,27.70
2016,06,04,16,37,27.70
2016,06,04,16,38,27.70
2016,06,04,16,39,27.70
2016,06,04,16,40,27.70
2016,06,04,16,41,27.60
2016,06,04,16,42,27.60
2016,06,04,16,43,27.60
2016,06,04,16,44,27.60
2016,06,04,16,45,27.60
2016,06,04,16,46,27.70
2016,06,04,16,47,27.70
2016,06,04,16,48,27.80
2016,06,04,16,49,27.90
2016,06,04,16,50,27.90
2016,06,04,16,51,28.00
2016,06,04,16,52,28.00
2016,06,04,16,53,28.00
2016,06,04,16,54,27.90
2016,06,04,16,55,27.90
2016,06,04,16,56,27.90
2016,06,04,16,57,27.90
2016,06,04,16,58,28.00
2016,06,04,16,59,28.00
2016,06,04,17,00,27.80
2016,06,04,17,01,27.70
2016,06,04,17,02,27.60
2016,06,04,17,03,27.60
2016,06,04,17,04,27.60
2016,06,04,17,05,27.70
2016,06,04,17,06,27.70
2016,06,04,17,07,27.60
2016,06,04,17,08,27.60
2016,06,04,17,09,27.50
2016,06,04,17,10,27.50
2016,06,04,17,11,27.60
2016,06,04,17,12,27.60
2016,06,04,17,13,27.60
2016,06,04,17,14,27.60
2016,06,04,17,15,27.70
2016,06,04,17,16,27.70
2016,06,04,17,17,27.70
2016,06,04,17,18,27.70
2016,06,04,17,19,27.70